Content
SEND FEEDBACK

Daily
Averages
Monthly
Summary
United States of America

ROCK HILL, NEW YORK


Home > North America > United States > New York
Elevation: 1260 feet     Latitude: 41 35N     Longitude: 074 37W

WEATHER
 
SELECT A DAY
Number of Records: 454,725;   Date Range: 1/1/95 - 12/19/14
 
SHARE

PRINT THIS DATA

[ ← Previous Day ]
WEATHER ALMANAC - FEBRUARY 21, 2014
[ Next Day → ]
[ °C ]   °F
Weather ElementAverageHighLow
Temperature34.7 °F39.2 °F (3:35 pm)30.2 °F (9:55 pm)
Dewpoint30.5 °F35.6 °F (3:15 pm)24.8 °F (11:15 pm)
Humidity85.1 %93 % (11:35 am)70 % (11:55 pm)
Barometer29.81 in29.98 in (12:35 am)29.65 in (1:35 pm)
Wind Speed8.1 mph13.8 mph (7:15 am)
Wind Gust18.4 mph (7:15 am)
Weather ElementAverage
Visibility4.4 mi
Wind DirectionSSE (151.8 °)

Weather ElementTotal
Precipitation---
Heating Degree Days30.3 (Base 65)
Averaged from 68 records on February 21, 2014
WEATHER CONDITIONS BREAKOUT
WIND DIRECTION BREAKOUT
WEATHER BY HOUR - FEBRUARY 21, 2014
[ °C ]   °F
Local TimeTemperatureDewpointHumidityBarometerVisibilityWind DirectionWind SpeedGust SpeedPrecipitationEventsConditions
12:35 AM33.8 °F28.4 °F81 %29.98 in4.0 miEast (80°)6.9 mphMostly Cloudy
12:55 AM32.0 °F28.4 °F87 %29.97 in3.0 miEast (90°)8.1 mphOvercast
1:15 AM32.0 °F28.4 °F87 %29.95 in3.0 miEast (90°)8.1 mphOvercast
1:35 AM32.0 °F28.4 °F87 %29.95 in2.0 miEast (90°)8.1 mphOvercast
1:55 AM32.0 °F28.4 °F87 %29.94 in1.0 miEast (90°)8.1 mphOvercast
2:15 AM32.0 °F28.4 °F87 %29.92 in0.2 miEast (80°)10.4 mphOvercast
2:35 AM32.0 °F28.4 °F87 %29.92 in0.2 miEast (80°)8.1 mphOvercast
2:55 AM33.8 °F28.4 °F81 %29.91 in0.2 miEast (80°)9.2 mphOvercast
3:15 AM33.8 °F28.4 °F81 %29.90 in0.2 miEast (80°)9.2 mphOvercast
3:35 AM33.8 °F30.2 °F87 %29.90 in0.2 miEast (90°)10.4 mphOvercast
3:55 AM33.8 °F30.2 °F87 %29.90 in0.2 miEast (90°)8.1 mphOvercast
4:35 AM33.8 °F30.2 °F87 %29.91 in0.2 miEast (100°)9.2 mphOvercast
4:55 AM33.8 °F30.2 °F87 %29.91 in0.2 miEast (90°)10.4 mphOvercast
5:15 AM33.8 °F30.2 °F87 %29.91 in0.2 miEast (90°)9.2 mphOvercast
5:35 AM33.8 °F30.2 °F87 %29.91 in0.2 miEast (90°)9.2 mphOvercast
5:55 AM33.8 °F30.2 °F87 %29.89 in0.2 miEast (80°)10.4 mphOvercast
6:15 AM33.8 °F30.2 °F87 %29.89 in0.2 miEast (90°)10.4 mphOvercast
6:35 AM33.8 °F30.2 °F87 %29.89 in0.2 miEast (100°)9.2 mphOvercast
6:55 AM33.8 °F30.2 °F87 %29.88 in0.2 miEast (90°)11.5 mphOvercast
7:15 AM33.8 °F30.2 °F87 %29.87 in0.2 miEast (90°)13.8 mph18.4 mphOvercast
7:35 AM33.8 °F30.2 °F87 %29.86 in0.2 miEast (100°)12.7 mphOvercast
7:55 AM33.8 °F30.2 °F87 %29.87 in0.2 miEast (90°)10.4 mphOvercast
8:15 AM33.8 °F30.2 °F87 %29.87 in0.2 miEast (90°)10.4 mphOvercast
8:35 AM33.8 °F30.2 °F87 %29.86 in0.2 miEast (90°)11.5 mphOvercast
8:55 AM33.8 °F30.2 °F87 %29.84 in0.5 miEast (90°)12.7 mphOvercast
9:35 AM33.8 °F30.2 °F87 %29.82 in1.2 miEast (90°)11.5 mphOvercast
9:55 AM35.6 °F30.2 °F81 %29.82 in3.0 miEast (100°)10.4 mphOvercast
10:15 AM35.6 °F30.2 °F81 %29.81 in5.0 miEast (100°)10.4 mphOvercast
10:35 AM35.6 °F32.0 °F87 %29.81 in6.0 miEast (100°)10.4 mphOvercast
10:55 AM35.6 °F32.0 °F87 %29.80 in2.0 miESE (110°)12.7 mphOvercast
11:15 AM35.6 °F32.0 °F87 %29.77 in0.8 miEast (100°)13.8 mphOvercast
11:35 AM35.6 °F33.8 °F93 %29.76 in0.5 miEast (100°)13.8 mph18.4 mphOvercast
11:55 AM35.6 °F33.8 °F93 %29.74 in0.5 miEast (100°)12.7 mphOvercast
12:15 PM37.4 °F33.8 °F87 %29.72 in0.2 miEast (100°)10.4 mph16.1 mphOvercast
12:35 PM37.4 °F33.8 °F87 %29.70 in0.2 miEast (100°)12.7 mphOvercast
12:55 PM37.4 °F33.8 °F87 %29.67 in0.5 miEast (100°)13.8 mphOvercast
1:35 PM37.4 °F33.8 °F87 %29.65 in0.2 miEast (100°)10.4 mphOvercast
1:55 PM37.4 °F33.8 °F87 %29.65 in0.2 miENE (70°)6.9 mphThunderstormOvercast
2:15 PM37.4 °F33.8 °F87 %29.65 in0.8 miEast (90°)8.1 mphOvercast
2:35 PM37.4 °F33.8 °F87 %29.69 in2.5 miWest (280°)5.8 mph17.3 mphOvercast
2:55 PM37.4 °F33.8 °F87 %29.69 in3.0 miCalmOvercast
3:15 PM37.4 °F35.6 °F93 %29.72 in3.0 miWest (280°)6.9 mphOvercast
3:35 PM39.2 °F35.6 °F87 %29.71 in2.5 miWest (280°)9.2 mphOvercast
3:55 PM39.2 °F35.6 °F87 %29.73 in9.0 miWest (280°)6.9 mphOvercast
4:15 PM39.2 °F35.6 °F87 %29.73 in10.0 miWNW (290°)6.9 mphOvercast
4:35 PM39.2 °F35.6 °F87 %29.72 in10.0 miWNW (290°)8.1 mphOvercast
4:55 PM39.2 °F33.8 °F81 %29.71 in10.0 miNNW (330°)5.8 mphMostly Cloudy
5:15 PM37.4 °F33.8 °F87 %29.72 in10.0 miWNW (290°)4.6 mphOvercast
5:35 PM39.2 °F33.8 °F81 %29.72 in10.0 miWNW (290°)9.2 mphOvercast
5:55 PM37.4 °F33.8 °F87 %29.73 in10.0 miWest (280°)6.9 mphScattered Clouds
6:15 PM37.4 °F32.0 °F81 %29.74 in10.0 miWest (270°)6.9 mphPartly Cloudy
6:35 PM35.6 °F30.2 °F81 %29.76 in10.0 miWest (270°)6.9 mphClear
6:55 PM35.6 °F30.2 °F81 %29.76 in10.0 miWest (280°)6.9 mphClear
7:15 PM35.6 °F28.4 °F75 %29.77 in10.0 miWest (270°)5.8 mphClear
7:35 PM33.8 °F28.4 °F81 %29.78 in10.0 miWest (270°)5.8 mphClear
7:55 PM33.8 °F26.6 °F75 %29.80 in10.0 miSW (230°)3.5 mphClear
8:15 PM33.8 °F28.4 °F81 %29.80 in10.0 miCalmClear
8:35 PM33.8 °F28.4 °F81 %29.80 in10.0 miSW (230°)3.5 mphClear
8:55 PM32.0 °F28.4 °F87 %29.80 in10.0 miCalmClear
9:15 PM32.0 °F26.6 °F80 %29.81 in10.0 miCalmClear
9:35 PM32.0 °F28.4 °F87 %29.80 in8.0 miWSW (250°)3.5 mphClear
9:55 PM30.2 °F28.4 °F93 %29.81 in10.0 miSW (220°)4.6 mphClear
10:15 PM32.0 °F26.6 °F80 %29.81 in10.0 miWSW (240°)3.5 mphClear
10:35 PM30.2 °F26.6 °F86 %29.82 in10.0 miWSW (250°)3.5 mphClear
10:55 PM30.2 °F26.6 °F86 %29.83 in10.0 miWest (260°)6.9 mphClear
11:15 PM30.2 °F24.8 °F80 %29.84 in10.0 miWest (270°)6.9 mphClear
11:35 PM33.8 °F26.6 °F75 %29.85 in10.0 miWest (260°)4.6 mphClear
11:55 PM33.8 °F24.8 °F70 %29.85 in10.0 miWest (280°)6.9 mphClear
Hourly data recorded from KMSV, located miles away from Rock Hill, New York







STORIES FROM OUR PARTNERS